Location: Unspecified
(0.0000°N, 0.0000°E)
Time: 05:07:59
(UTC+00:00)

STARLINK-36491 - Visible Passes

Search period start: 14 February 2026 00:00
Search period end: 24 February 2026 00:00
Orbit: 479 x 482 km, 43.0° (Epoch: 11 February)

Date Brightness Start Highest point End Pass type
(mag) Time Alt. Az. Time Alt. Az. Time Alt. Az.
14 Feb ? 20:21:44 10° SW 20:22:08 13° SW 20:22:08 13° SW visible
15 Feb ? 19:52:57 10° SSW 19:55:13 33° SSW 19:55:13 33° SSW visible
16 Feb ? 19:24:07 10° SSW 19:27:46 51° SE 19:28:19 46° ESE visible
17 Feb ? 18:55:13 10° SSW 18:58:51 47° SE 19:01:27 17° ENE visible
18 Feb ? 20:07:21 10° WNW 20:08:35 11° NW 20:08:47 11° NW visible
19 Feb ? 19:37:57 10° WNW 19:39:32 12° NW 19:41:06 10° NNW visible
20 Feb ? 05:42:44 10° NNW 05:46:13 38° NE 05:49:43 10° ESE visible
20 Feb ? 19:08:34 10° WNW 19:10:25 13° NW 19:12:16 10° NNW visible
21 Feb ? 05:13:43 10° NNW 05:17:05 34° NE 05:20:31 10° ESE visible
21 Feb ? 18:39:09 10° W 18:41:14 14° NW 18:43:19 10° N visible
22 Feb ? 04:46:40 25° N 04:47:53 32° NE 04:51:15 10° ESE visible
23 Feb ? 04:19:33 26° ENE 04:19:33 26° ENE 04:21:55 10° ESE visible
